Volver al catálogo

STARLINK-31540

ActivoComunicacionesVLEO
NORAD 59542·PAYLOAD·🇺🇸 United States

Lanzado Apr 18, 2024 desde Cape Canaveral Space Force Station

Loading…

Próximos Pases (próximas 24 horas)

TLE

ActualizadoSource: CelesTrak SupGP

Época: Sep 15, 2026, 02:05 UTC

1 59542C 24074J   26258.08729167  .00027497  00000+0  99600-3 0  2588
2 59542  43.0018 353.6962 0001526 260.2188  63.7872 15.27563215    19

Sigue STARLINK-31540 en tiempo real con AllMySat

Download on the App Store